CAPE
0 0 0 0 0 0 0 0 0 0 0 0 0 0 0 0 0 0 0 0 0 310 1090 1097 924 817 961 1199 1489 1397 1258 1057
0 0 0 0 0 0 0 0 0 0 0 0 0 0 0 0 0 0 0 0 0 0 0 912 1084 984 968 902 880 1002 1058 1073
0 0 0 0 0 0 0 0 0 0 0 0 0 0 0 0 0 0 0 0 0 0 0 0 398 1075 1072 808 798 714 738 671
0 0 0 0 0 0 0 0 0 0 0 0 0 0 0 0 0 0 0 0 0 0 0 0 0 223 1016 1154 710 659 544 416
0 0 0 0 0 0 0 0 0 0 0 0 0 0 0 0 0 0 0 0 0 0 0 0 0 0 71 832 818 648 484 146
0 0 0 0 0 0 0 0 0 0 0 0 0 0 1 0 1 2 0 0 0 0 0 0 0 0 0 520 745 372 196 11
0 0 0 0 0 0 0 0 0 0 0 0 1 2 3 3 2 4 3 1 0 0 1 2 2 0 0 86 587 351 35 6
0 0 0 0 0 0 0 0 0 0 0 0 0 0 2 5 4 5 5 5 4 3 2 3 2 3 1 0 240 123 85 24
0 0 0 0 0 0 0 0 0 0 0 0 1 0 2 2 3 4 4 4 3 3 3 4 5 3 3 1 120 232 146 150
0 0 0 0 0 0 0 0 0 0 0 1 2 2 2 3 1 2 2 2 2 3 5 4 5 3 2 1 15 190 337 256
0 0 0 0 0 0 0 0 1 2 1 2 1 1 1 2 2 3 3 4 4 5 5 4 5 4 1 1 0 95 218 39
0 0 0 0 0 0 0 0 0 2 1 0 0 0 0 2 2 2 3 4 4 4 5 5 6 6 2 0 0 35 201 101
0 0 0 0 0 0 0 0 1 2 1 0 0 0 0 0 2 2 3 4 3 4 4 5 8 4 1 70 23 21 72 99
0 0 0 0 0 0 1 0 1 1 0 0 0 0 0 0 1 1 2 2 3 3 4 6 7 9 7 3 53 123 49 106
0 0 0 1 1 0 0 1 1 1 0 1 1 1 1 0 1 1 1 2 2 2 3 4 5 5 7 9 1 0 65 151
0 1 0 1 2 1 1 1 1 0 0 1 1 1 2 1 1 1 0 0 1 1 2 2 3 3 5 6 1 0 0 0
2 1 0 1 1 0 0 0 1 1 1 2 1 1 1 1 1 1 1 1 0 0 1 1 3 4 3 6 8 2 1 2
1 2 2 1 0 0 2 0 1 1 1 1 2 2 2 1 1 1 0 0 0 1 1 0 1 2 5 4 4 7 13 5
1 0 0 0 0 0 0 0 1 0 0 0 1 0 1 2 2 2 0 0 0 0 0 0 0 1 3 4 4 3 0 0
CIN
0 0 0 0 0 0 0 0 0 0 0 0 0 0 0 0 0 0 0 0 0 -179 -27 -21 -42 -46 -50 -54 -34 -54 -50 -79
0 0 0 0 0 0 0 0 0 0 0 0 0 0 0 0 0 0 0 0 0 0 -1 -41 -29 -32 -23 -47 -57 -46 -40 -55
0 0 0 0 0 0 0 0 0 0 0 0 0 0 0 0 0 0 0 0 0 0 0 0 -114 -3 -26 -43 -39 -31 -46 -63
0 0 0 0 0 0 0 0 0 0 0 0 0 0 0 0 0 0 0 0 0 0 0 0 0 -31 -1 -4 -44 -29 -22 -58
0 0 0 0 0 0 0 0 0 0 0 0 0 0 0 0 0 0 0 0 0 0 0 0 0 0 -83 -2 -8 -44 -44 -73
0 0 0 0 0 0 0 0 0 0 0 0 0 0 0 0 0 0 0 0 0 0 0 0 0 0 0 -39 -4 -48 -78 -152
0 0 0 0 0 0 0 0 0 0 0 0 0 0 0 0 0 0 0 0 0 0 0 0 0 0 0 -97 -9 -28 -109 -72
0 0 0 0 0 0 0 0 0 0 0 0 0 0 0 0 0 0 0 0 0 0 0 0 0 0 0 0 -49 -73 -82 -58
0 0 0 0 0 0 0 0 0 0 0 0 0 0 0 0 0 0 0 0 0 0 0 0 0 0 0 0 -43 -28 -85 -49
0 0 0 0 0 0 0 0 0 0 0 0 0 0 0 0 0 0 0 0 0 0 0 0 0 0 0 0 -45 -37 -32 -48
0 0 0 0 0 0 0 0 0 0 0 0 0 0 0 0 0 0 0 0 0 0 0 0 0 0 0 0 0 -65 -38 -87
0 0 0 0 0 0 0 0 0 0 0 0 0 0 0 0 0 0 0 0 0 0 0 0 0 0 0 0 0 -87 -25 -35
0 0 0 0 0 0 0 0 0 0 0 0 0 0 0 0 0 0 0 0 0 0 0 0 0 0 0 -21 -70 -102 -45 -50
0 0 0 0 0 0 0 0 0 0 0 0 0 0 0 0 0 0 0 0 0 0 0 0 0 0 0 0 -23 -42 -51 -62
0 0 0 0 0 0 0 0 0 0 0 0 0 0 0 0 0 0 0 0 0 0 0 0 0 0 0 0 0 -15 -50 -4
0 0 0 0 -1 0 0 0 0 0 0 0 0 0 0 0 0 0 0 0 0 0 0 0 0 0 0 0 0 0 0 0
0 0 0 0 0 0 0 0 0 0 0 0 0 0 0 0 0 0 0 0 0 0 0 0 0 0 0 0 0 0 0 0
0 0 0 0 0 0 0 0 0 0 0 0 0 0 0 0 0 0 0 0 0 0 0 0 0 0 0 0 0 0 0 0
0 -1 0 0 0 0 0 0 0 0 0 0 0 0 0 0 0 0 0 0 0 0 0 0 0 0 0 0 0 0 0 0
Wind_Speed
13 11 10 10 11 13 17 20 24 28 30 31 30 30 31 31 32 32 33 34 35 37 38 34 29 28 27 27 28 26 27 26
8 7 8 11 14 16 19 22 25 27 29 31 33 34 35 34 35 35 36 36 35 36 37 39 36 34 31 31 30 29 31 28
6 6 7 11 14 17 20 22 24 27 28 29 29 34 32 36 35 37 37 37 39 40 40 41 41 37 34 31 30 31 31 29
11 12 10 13 14 17 19 22 24 27 27 29 31 31 32 33 36 38 38 40 41 41 43 42 43 42 36 34 32 32 34 32
17 14 11 12 15 17 20 21 24 26 28 29 32 32 35 35 37 38 40 40 42 42 42 44 43 42 43 37 34 33 32 33
5 6 9 12 14 17 22 22 24 27 28 30 32 34 35 37 37 38 38 38 39 41 42 43 44 46 45 41 36 33 32 31
8 7 8 12 15 18 23 25 28 29 30 32 32 35 37 38 38 39 38 39 39 40 41 42 42 44 43 43 36 35 35 35
4 8 11 15 18 22 27 29 29 31 32 33 34 35 37 38 39 39 41 40 40 41 42 43 43 43 43 42 36 36 35 36
6 9 13 17 20 24 27 28 30 32 33 34 34 36 37 38 39 40 40 41 41 43 43 43 44 41 40 36 33 32 32 33
8 13 18 20 22 24 27 30 32 33 35 35 36 36 37 38 39 39 40 41 42 44 44 45 44 37 32 30 31 29 28 29
13 16 19 22 23 25 29 31 33 34 35 35 36 37 37 38 38 39 40 41 42 43 44 44 42 39 29 29 29 29 29 28
20 21 22 24 26 28 30 33 34 35 36 36 37 37 37 37 37 38 39 40 41 42 42 43 39 39 29 25 24 25 25 24
24 26 27 28 30 31 32 33 34 35 35 35 36 36 36 36 37 38 38 39 40 40 41 41 38 39 38 23 21 21 27 26
27 29 30 31 31 31 32 33 34 35 34 35 35 35 35 36 36 37 37 38 39 39 39 39 38 37 36 34 29 28 37 28
29 30 30 30 31 31 31 32 34 34 33 34 34 34 34 34 35 35 36 36 37 38 38 38 37 36 36 36 35 32 36 32
29 31 30 30 31 30 31 31 32 32 32 32 33 33 33 34 34 34 35 35 36 36 37 36 35 33 33 36 33 35 39 52
30 30 29 29 29 29 29 29 30 29 30 31 31 32 32 33 34 34 34 35 36 36 36 35 33 31 33 31 25 22 22 26
26 26 27 27 27 27 27 27 27 27 28 29 30 31 31 32 33 33 35 36 36 36 36 35 32 31 30 27 24 18 18 19
22 23 25 25 25 24 24 24 25 26 27 28 29 30 30 31 32 34 35 35 36 37 37 35 32 32 29 28 23 19 18 16
Wind_Direction
249 248 264 281 296 303 307 311 311 310 307 304 300 298 295 294 293 293 291 289 288 284 279 280 277 275 273 269 266 267 268 269
245 247 268 284 297 304 308 310 313 314 308 303 298 295 294 292 291 291 289 289 289 288 285 282 281 278 273 270 272 271 269 266
253 258 283 298 302 308 312 313 313 314 310 308 305 299 298 294 293 291 290 290 288 285 285 283 281 282 279 275 270 270 274 271
271 268 287 303 318 318 319 318 318 316 313 310 308 305 301 297 295 293 291 290 287 285 282 282 282 283 281 277 272 271 271 276
249 264 286 318 319 326 321 319 321 318 316 312 308 304 299 299 298 297 294 292 288 287 286 282 282 283 283 279 277 272 272 269
281 252 301 307 324 332 323 320 326 320 315 311 308 304 301 301 302 299 299 297 295 292 290 287 284 282 282 280 274 271 269 266
284 315 303 312 326 331 326 327 327 320 318 315 311 306 301 301 303 303 301 300 299 296 295 292 290 285 282 282 273 269 267 267
283 306 313 312 330 331 326 324 321 325 318 315 312 308 304 301 302 304 302 302 303 300 298 295 293 289 284 283 275 269 268 269
336 327 325 324 334 330 328 327 328 327 321 317 314 312 306 304 303 304 304 302 301 300 299 298 297 294 290 282 279 269 266 266
344 333 327 328 329 327 327 331 331 328 326 320 316 313 311 308 307 306 304 304 303 301 301 301 301 301 294 282 279 271 266 263
343 340 332 327 328 329 328 338 337 333 327 324 318 314 313 312 311 308 305 305 305 304 303 306 306 305 296 284 277 277 273 265
354 346 340 328 330 332 329 337 338 336 331 327 323 320 317 317 316 313 310 307 308 308 309 310 310 307 301 286 278 272 268 267
339 336 332 328 327 332 332 336 337 335 337 336 331 326 324 321 319 316 316 312 312 314 313 313 315 308 302 292 279 266 269 266
328 327 328 326 328 330 334 333 336 339 342 342 338 334 330 327 324 322 321 319 318 321 319 317 316 308 306 297 288 275 263 269
326 328 327 327 329 330 329 332 340 343 346 345 340 337 334 332 329 329 327 326 326 326 326 324 319 311 305 296 289 278 268 270
327 326 325 328 331 331 334 339 344 348 349 347 343 340 338 335 333 333 334 336 337 335 334 333 323 320 314 303 293 284 273 259
329 328 331 332 334 334 337 340 346 347 347 346 347 346 345 343 345 344 342 342 343 344 344 339 331 325 321 322 303 302 297 274
334 339 342 340 339 344 346 347 349 349 350 350 351 351 350 350 352 352 351 352 354 353 352 346 341 335 332 327 328 320 311 292
338 340 342 344 343 343 346 350 354 356 356 354 353 353 353 356 359 1 1 2 2 2 2 356 350 348 340 336 332 328 325 312